[[{"header":{"parameterUnit":"m.s-1","parameterCategory":1,"la1":30.2991,"la2":30.254,"lo1":-89.0895,"lo2":-89.0444,"dy":0.0017,"dx":0.0017,"nx":28,"ny":28,"refTime":"2024-04-28T09:00:00:Z","depth":0,"parameterNumber":2,"parameterNumberName":"U-component_of_WINDS"},"data":[0,0,0,0,0,0,0,0,0,0,0,0,0,0,0,0,0,0,0,0,0,0,0,0,0,0,0,0,0,0,0,0,0,0,0,0,0,0,0,0,0,0,0,0,0,0,0,0,0,0,0,0,0,0,0,0,0,0,-1.2869,-1.2871,0,-1.2988,-1.2989,-1.299,-1.304,-1.304,-1.304,-1.304,-1.3165,-1.3168,-1.3172,0,0,0,0,0,0,0,0,0,0,0,0,0,-1.269,-1.2693,-1.2869,-1.2871,-1.2872,-1.2987,-1.2989,-1.2991,-1.304,-1.304,-1.304,-1.3039,-1.3164,-1.3168,-1.3172,0,0,0,0,0,0,0,0,0,0,0,0,0,-1.2784,-1.2694,-1.2869,-1.2911,-1.2916,-1.2987,-1.2989,-1.2991,-1.304,-1.304,-1.304,-1.3039,-1.3162,-1.3167,-1.3173,-1.3213,0,0,-1.3189,-1.3191,0,0,0,0,0,0,0,0,-1.2779,-1.2791,-1.2903,-1.2908,-1.2914,-1.2999,-1.2972,-1.3066,-1.304,-1.2993,-1.304,-1.3039,-1.311,-1.312,-1.3143,-1.3218,-1.3224,-1.3189,-1.3193,-1.3195,-1.3196,0,0,0,0,0,0,0,-1.2772,-1.2786,-1.2916,-1.2905,-1.2911,-1.2925,-1.2938,-1.299,-1.3052,-1.2997,-1.3001,-1.3014,-1.3113,-1.3137,-1.3146,-1.3226,-1.3189,-1.3194,-1.3197,-1.3199,-1.3341,-1.3342,0,0,0,0,0,0,-1.2758,-1.278,-1.2912,-1.292,-1.2844,-1.2928,-1.2943,-1.2972,-1.3052,-1.3064,-1.3014,-1.3016,-1.3129,-1.314,-1.3151,-1.3203,-1.3195,-1.32,-1.3203,-1.3341,-1.3342,-1.3342,0,0,0,0,0,0,-1.2754,-1.277,-1.2908,-1.2851,-1.287,-1.2932,-1.2964,-1.2974,-1.2999,-1.3065,-1.3077,-1.3028,-1.3129,-1.3143,-1.3197,-1.3208,-1.3202,-1.3207,-1.334,-1.3341,-1.3342,-1.3308,0,0,0,0,0,0,-1.2749,-1.2768,-1.2783,-1.2851,-1.2872,-1.295,-1.2965,-1.2977,-1.3008,-1.3011,-1.308,-1.3092,-1.313,-1.3189,-1.3202,-1.3216,-1.3211,-1.3339,-1.3341,-1.3342,-1.3309,-1.3308,-1.3307,0,0,0,0,0,-1.2742,-1.2769,-1.2783,-1.2799,-1.2892,-1.2951,-1.2963,-1.3005,-1.3008,-1.3024,-1.3067,-1.3089,-1.3205,-1.3194,-1.3209,-1.3224,-1.3339,-1.334,-1.3341,-1.3309,-1.3308,-1.3307,0,0,0,0,0,0,-1.2702,-1.2779,-1.2795,-1.2845,-1.2891,-1.2959,-1.2981,-1.3003,-1.305,-1.3051,-1.3103,-1.3118,-1.3167,-1.3202,-1.3188,-1.3268,-1.3274,-1.3278,-1.3244,-1.3243,-1.3243,-1.3234,-1.3216,0,0,0,0,0,-1.2698,-1.2738,-1.2804,-1.2841,-1.2864,-1.2918,-1.2945,-1.2973,-1.3024,-1.3044,-1.309,-1.3139,-1.3187,-1.3217,-1.3264,-1.3314,-1.333,-1.3332,-1.3332,-1.3331,-1.3334,-1.3364,-1.3366,-1.3346,-1.3346,-1.3346,0,0,-1.2692,-1.2739,-1.2761,-1.2834,-1.2873,-1.2915,-1.2934,-1.2977,-1.3009,-1.3051,-1.3104,-1.314,-1.3198,-1.325,-1.3275,-1.328,-1.3343,-1.3332,-1.3331,-1.3335,-1.3365,-1.3367,-1.3369,-1.3347,-1.3347,-1.3347,0,0,-1.2702,-1.2741,-1.2777,-1.2815,-1.2874,-1.291,-1.2918,-1.2984,-1.3009,-1.3062,-1.3095,-1.3135,-1.3215,-1.3255,-1.3286,-1.3312,-1.3335,-1.3326,-1.3323,-1.3351,-1.3352,-1.3354,-1.3364,-1.3367,-1.3329,-1.3329,-1.3329,0,-1.2687,-1.275,-1.2792,-1.2834,-1.2865,-1.2904,-1.2941,-1.2977,-1.3049,-1.307,-1.3074,-1.3176,-1.3219,-1.3281,-1.3287,-1.3311,-1.3323,-1.3318,-1.3348,-1.3351,-1.3353,-1.3363,-1.3366,-1.3328,-1.3328,-1.3328,-1.3328,0,-1.2729,-1.2772,-1.2794,-1.286,-1.2895,-1.2934,-1.2984,-1.3014,-1.3039,-1.3075,-1.3131,-1.3182,-1.3241,-1.3258,-1.3284,-1.3324,-1.3325,-1.3338,-1.3345,-1.3352,-1.3363,-1.3367,-1.3326,-1.3326,-1.3327,-1.3327,0,0,-1.2717,-1.2806,-1.2813,-1.2844,-1.2912,-1.2947,-1.2988,-1.3044,-1.3069,-1.3118,-1.3155,-1.3222,-1.3234,-1.327,-1.33,-1.3325,-1.3343,-1.3335,-1.3338,-1.3335,-1.3392,-1.3382,-1.3385,-1.3359,-1.3359,-1.336,-1.3387,0,-1.2736,-1.281,-1.285,-1.2908,-1.2949,-1.2987,-1.3023,-1.3069,-1.3104,-1.3145,-1.3185,-1.3232,-1.3244,-1.3266,-1.3292,-1.3335,-1.3355,-1.3334,-1.3395,-1.3396,-1.3379,-1.3391,-1.338,-1.3403,-1.3391,-1.3392,-1.3393,0,-1.2768,-1.2814,-1.2876,-1.2939,-1.2958,-1.2989,-1.3045,-1.3083,-1.3137,-1.3161,-1.32,-1.323,-1.3277,-1.328,-1.3346,-1.3331,-1.3358,-1.3383,-1.3385,-1.3393,-1.3395,-1.3399,-1.3411,-1.3415,-1.3399,-1.3399,-1.3398,0,-1.2753,-1.2831,-1.2878,-1.2904,-1.2978,-1.3,-1.3032,-1.3085,-1.3117,-1.3166,-1.3187,-1.3241,-1.327,-1.3312,-1.3357,-1.3355,-1.3419,-1.3426,-1.3441,-1.344,-1.3453,-1.3452,-1.347,-1.347,-1.347,-1.347,-1.347,0,-1.2771,-1.2807,-1.2873,-1.2901,-1.2944,-1.299,-1.3031,-1.3067,-1.3114,-1.3152,-1.3188,-1.3223,-1.328,-1.3323,-1.3358,-1.3408,-1.3421,-1.3443,-1.3452,-1.344,-1.3437,-1.3459,-1.3458,-1.3471,-1.3471,-1.347,-1.347,0,-1.2762,-1.2807,-1.286,-1.2926,-1.2944,-1.2972,-1.303,-1.306,-1.3097,-1.3144,-1.3158,-1.3217,-1.3269,-1.3317,-1.3387,-1.3411,-1.3461,-1.3473,-1.3443,-1.3448,-1.3461,-1.3459,-1.3494,-1.3501,-1.3495,-1.3495,-1.3495,0,-1.277,-1.2799,-1.2867,-1.2894,-1.2926,-1.2969,-1.3001,-1.3048,-1.3081,-1.3144,-1.3167,-1.3221,-1.3267,-1.3349,-1.3399,-1.3452,-1.3466,-1.3475,-1.3474,-1.3461,-1.3467,-1.3465,-1.3468,-1.3474,-1.3474,-1.3473,-1.3473,0,-1.278,-1.2801,-1.2845,-1.2897,-1.2933,-1.2977,-1.3022,-1.3042,-1.3098,-1.3133,-1.3186,-1.3221,-1.3292,-1.3346,-1.3405,-1.3441,-1.3467,-1.3473,-1.3479,-1.3467,-1.3449,-1.346,-1.3441,-1.3472,-1.3472,-1.3472,-1.3472,-1.3472,-1.2781,-1.2808,-1.2861,-1.2909,-1.2947,-1.2988,-1.302,-1.306,-1.3104,-1.3165,-1.319,-1.3244,-1.3298,-1.3381,-1.3416,-1.3459,-1.3465,-1.3475,-1.3477,-1.3479,-1.3477,-1.3441,-1.347,-1.3471,-1.3471,-1.3471,-1.3471,0,-1.2794,-1.2829,-1.2872,-1.2933,-1.2971,-1.2991,-1.3042,-1.3073,-1.3119,-1.3166,-1.321,-1.3272,-1.3324,-1.3378,-1.3434,-1.3459,-1.3472,-1.3472,-1.3471,-1.3479,-1.3468,-1.3457,-1.346,-1.346,-1.346,-1.346,-1.346,-1.346,-1.2805,-1.2852,-1.2879,-1.2947,-1.2983,-1.3034,-1.3061,-1.31,-1.3138,-1.3204,-1.3248,-1.3282,-1.3332,-1.3392,-1.3442,-1.3457,-1.3476,-1.3472,-1.349,-1.3479,-1.3479,-1.348,-1.347,-1.3476,-1.3476,-1.3498,-1.3498,-1.3498]},{"header":{"parameterUnit":"m.s-1","parameterCategory":1,"la1":30.2991,"la2":30.254,"lo1":-89.0895,"lo2":-89.0444,"dy":0.0017,"dx":0.0017,"nx":28,"ny":28,"refTime":"2024-04-28T09:00:00:Z","depth":0,"parameterNumber":3,"parameterNumberName":"V-component_of_WINDS"},"data":[0,0,0,0,0,0,0,0,0,0,0,0,0,0,0,0,0,0,0,0,0,0,0,0,0,0,0,0,0,0,0,0,0,0,0,0,0,0,0,0,0,0,0,0,0,0,0,0,0,0,0,0,0,0,0,0,0,0,5.7868,5.7869,0,5.7941,5.7942,5.7943,5.7876,5.7874,5.7871,5.7868,5.7939,5.7944,5.7948,0,0,0,0,0,0,0,0,0,0,0,0,0,5.7667,5.7672,5.7868,5.7869,5.787,5.7941,5.7942,5.7943,5.7877,5.7873,5.787,5.7867,5.7938,5.7943,5.7948,0,0,0,0,0,0,0,0,0,0,0,0,0,5.7749,5.7673,5.7868,5.7845,5.7844,5.7941,5.7942,5.7943,5.7877,5.7873,5.7869,5.7866,5.7936,5.7943,5.7949,5.807,0,0,5.7969,5.7972,0,0,0,0,0,0,0,0,5.7744,5.7756,5.7848,5.7847,5.7846,5.7895,5.7897,5.7986,5.7878,5.7865,5.7868,5.7864,5.7928,5.7935,5.7957,5.8074,5.8077,5.797,5.7974,5.7977,5.7979,0,0,0,0,0,0,0,5.7739,5.7753,5.7897,5.7849,5.7848,5.783,5.7838,5.7914,5.7918,5.7866,5.7861,5.7871,5.7926,5.7951,5.7958,5.8078,5.797,5.7976,5.798,5.7982,5.8297,5.8301,0,0,0,0,0,0,5.7736,5.7749,5.7894,5.7899,5.7784,5.7837,5.7845,5.7884,5.7917,5.7918,5.7874,5.7867,5.7942,5.7951,5.7961,5.8105,5.7977,5.7983,5.7987,5.8292,5.8298,5.8302,0,0,0,0,0,0,5.7732,5.775,5.7891,5.7823,5.7839,5.7845,5.7889,5.7887,5.7912,5.7923,5.7923,5.7899,5.7939,5.7951,5.8044,5.8106,5.7986,5.7992,5.8287,5.8294,5.83,5.8394,0,0,0,0,0,0,5.7727,5.7749,5.7796,5.7824,5.7843,5.7975,5.7892,5.7891,5.7924,5.7916,5.7946,5.7948,5.7937,5.8034,5.805,5.8113,5.7997,5.8282,5.829,5.8298,5.8385,5.8403,5.8418,0,0,0,0,0,5.772,5.7819,5.7798,5.7816,5.7902,5.7979,5.7989,5.7976,5.7929,5.7976,5.7983,5.7947,5.8097,5.8044,5.8062,5.8128,5.8278,5.8288,5.8297,5.8378,5.8399,5.8418,0,0,0,0,0,0,5.7796,5.7822,5.78,5.7911,5.7943,5.7967,5.8026,5.7999,5.8044,5.8035,5.8015,5.8022,5.812,5.8133,5.8074,5.8246,5.8179,5.8193,5.8235,5.8255,5.8271,5.8266,5.8002,0,0,0,0,0,5.7826,5.7887,5.7906,5.8002,5.8019,5.802,5.8053,5.804,5.8072,5.8085,5.8099,5.813,5.8184,5.822,5.8271,5.8387,5.8392,5.844,5.8457,5.847,5.8482,5.8544,5.8566,5.8335,5.8335,5.8335,0,0,5.7888,5.791,5.7949,5.8018,5.8041,5.8104,5.8032,5.8101,5.8147,5.8094,5.8183,5.8195,5.8228,5.8333,5.838,5.8346,5.8547,5.8483,5.8493,5.8498,5.8557,5.8579,5.8598,5.8342,5.834,5.8339,0,0,5.8034,5.8057,5.8139,5.8165,5.8201,5.8201,5.8221,5.8249,5.8255,5.8344,5.8306,5.8359,5.8453,5.8479,5.8504,5.8659,5.8627,5.8676,5.8762,5.8822,5.8841,5.8857,5.8912,5.8932,5.8688,5.8688,5.8688,0,5.8106,5.82,5.8185,5.8257,5.8288,5.8245,5.8328,5.8352,5.8403,5.8425,5.8387,5.8505,5.8524,5.8634,5.8672,5.8694,5.8715,5.8673,5.8839,5.8855,5.887,5.8923,5.8943,5.8694,5.8693,5.8693,5.8692,0,5.8287,5.8353,5.8415,5.8467,5.8505,5.8582,5.8577,5.8617,5.8601,5.8604,5.8695,5.8717,5.8771,5.8796,5.878,5.8904,5.8882,5.8842,5.8775,5.8898,5.8947,5.8967,5.8702,5.87,5.8698,5.8697,0,0,5.8484,5.8526,5.8549,5.8572,5.8609,5.8659,5.8734,5.8788,5.8823,5.8859,5.8921,5.9001,5.8965,5.8993,5.898,5.9033,5.9155,5.8986,5.8987,5.9017,5.9292,5.9322,5.9346,5.9133,5.9137,5.914,5.929,0,5.8631,5.8763,5.8751,5.8875,5.8935,5.8895,5.8959,5.8989,5.8994,5.9044,5.9049,5.9107,5.9054,5.9071,5.9122,5.9129,5.921,5.9118,5.919,5.9193,5.9184,5.9372,5.9404,5.9544,5.9309,5.9312,5.9314,0,5.882,5.8865,5.8996,5.9024,5.9048,5.9107,5.9156,5.9205,5.9237,5.9237,5.9269,5.9246,5.932,5.9251,5.9353,5.9291,5.9319,5.9327,5.9332,5.9339,5.9261,5.9384,5.9588,5.9609,5.9344,5.9342,5.934,0,5.8951,5.9043,5.9133,5.9154,5.9189,5.9231,5.9247,5.9275,5.9309,5.935,5.9372,5.9421,5.9449,5.9487,5.9478,5.9428,5.9582,5.9512,5.9583,5.9584,5.9618,5.9616,5.983,5.9636,5.9635,5.9635,5.9634,0,5.9117,5.9198,5.9192,5.9248,5.9338,5.9323,5.9412,5.9422,5.9448,5.9504,5.9471,5.9524,5.9508,5.956,5.9553,5.9639,5.9651,5.9652,5.965,5.9656,5.9656,5.9675,5.9665,5.964,5.9639,5.9638,5.9637,0,5.9278,5.9277,5.9373,5.9398,5.9407,5.9472,5.9493,5.9544,5.9547,5.9618,5.9634,5.9637,5.9697,5.9691,5.9758,5.9753,5.9859,5.9844,5.9849,5.9846,5.9918,5.9911,6.0152,6.0183,5.9968,5.997,5.9972,0,5.9384,5.9447,5.9479,5.9515,5.9534,5.9592,5.9626,5.9613,5.9649,5.969,5.9737,5.9794,5.9839,5.9936,5.9943,5.9994,5.998,6.0061,5.9988,5.9992,5.9982,5.9979,5.9985,6.0076,6.0078,6.008,6.0082,0,5.9573,5.957,5.9621,5.9672,5.9714,5.9753,5.9789,5.982,5.981,5.9853,5.9914,5.9949,6.0017,6.0074,6.0122,6.0137,6.0108,6.0105,6.0124,6.0132,6.0132,6.0133,5.9889,6.01,6.0098,6.0097,6.0096,6.0095,5.9711,5.9764,5.9795,5.9853,5.9878,5.9913,5.9963,5.9971,6.0023,6.0078,6.0067,6.0136,6.0165,6.0227,6.0247,6.03,6.027,6.0298,6.0305,6.0313,6.0321,6.0123,6.0308,6.0308,6.0307,6.0307,6.0306,0,5.9898,5.9916,5.997,6.0021,6.0066,6.0036,6.0074,6.0113,6.0175,6.0205,6.025,6.032,6.0375,6.0387,6.0439,6.0479,6.0467,6.0493,6.049,6.0494,6.0344,6.0323,6.0502,6.0502,6.0502,6.0502,6.0502,6.0502,6.0001,6.009,6.009,6.0191,6.0207,6.0276,6.03,6.0331,6.0355,6.0435,6.0481,6.0489,6.0512,6.0565,6.0614,6.0615,6.0636,6.0668,6.0665,6.0525,6.0505,6.0486,6.0466,6.0673,6.0673,6.0811,6.0812,6.0813]}]]